SCP
0 0 -0 -0 -0 -0 -0 -0 -0 -0 -0 -0 -0 -0 -0 -0 -0 0 -0 -0 -0 -0 -0 -0 0 0 0 0 0 0 0 0 0 0 0 0 0 0 0 0 0 0 0
-0 -0 -0 -0 -0 -0 -0 -0 -0 -0 -0 -0 -0 -0 -0 -0 -0 -0 -0 -0 -0 -0 -0 0 0 0 0 0 0 0 0 0 0 0 0 0 0 0 0 0 0 0 0
-0 0 0 -0 -0 -0 -0 -0 -0 -0 -0 -0 -0 -0 -0 -0 -0 -0 -0 -0 -0 -0 -0 0 0 0 0 0 0 0 0 0 0 0 0 0 0 0 0 0 0 0 0
-0 0 0 -0 -0 -0 -0 -0 -0 -0 -0 -0 -0 -0 -0 -0 -0 -0 -0 -0 -0 -0 0 0 0 0 0 0 0 0 0 0 0 0 0 0 0 0 0 0 0 0 0
-0 -0 -0 -0 -0 -0 -0 -0 -0 -0 -0 -0 -0 -0 -0 -0 -0 -0 -0 -0 -0 -0 0 0 0 0 0 0 0 0 0 0 0 0 0 0 0 0 0 0 0 0 0
-0 -0 -0 -0 -0 -0 -0 -0 -0 -0 -0 -0 -0 -0 -0 -0 -0 -0 -0 -0 -0 0 0 0 0 0 0 0 0 0 0 0 0 0 0 0 0 0 0 0 0 0 0
-0 -0 -0 -0 -0 -0 -0 -0 -0 -0 -0 -0 -0 -0 -0 -0 -0 -0 -0 -0 0 0 0 0 0 0 0 0 0 0 0 -0 0 0 0 0 0 0 1 0 0 0 0
-0 -0 -0 -0 -0 -0 -0 -0 -0 -0 -0 0 0 -0 -0 -0 -0 -0 0 0 0 0 0 0 0 -0 -0 -0 -0 -0 -0 -0 0 0 0 0 0 0 1 1 1 1 0
0 -0 0 0 -0 -0 -0 -0 -0 -0 -0 0 0 0 -0 0 0 0 0 0 0 0 0 0 0 -0 -0 -0 -0 -0 -0 -0 -0 0 0 0 0 0 0 1 1 1 1
0 0 0 0 0 0 0 -0 -0 -0 -0 0 -0 -0 -0 0 0 0 0 0 0 0 0 0 0 -0 -0 -0 -0 -0 -0 -0 0 0 0 0 0 0 0 1 1 1 0
0 0 0 0 0 0 0 0 -0 -0 0 0 -0 -0 -0 0 0 0 0 0 0 0 0 0 0 0 0 -0 -0 -0 -0 0 0 0 0 0 0 0 0 1 1 1 0
-0 0 0 0 -0 0 0 0 0 0 0 0 0 0 0 0 0 0 0 0 0 0 0 0 0 0 0 0 0 0 0 0 0 0 0 0 0 0 0 0 1 1 1
0 0 -0 0 0 0 0 0 0 0 0 0 0 0 0 0 0 0 0 0 0 0 0 0 0 0 0 0 0 0 0 0 0 0 0 0 0 0 0 0 1 1 1
0 0 0 0 0 0 0 0 0 0 0 0 0 0 0 0 0 0 0 0 0 0 0 0 0 0 0 0 0 0 0 0 0 0 0 0 0 0 0 1 1 2 2
0 0 0 0 0 0 0 0 0 0 0 -0 0 0 0 0 0 0 0 0 0 0 0 0 0 0 0 0 0 0 0 0 0 0 0 0 -0 -0 0 0 1 2 2
0 0 0 0 0 0 0 0 0 -0 0 -0 0 0 0 0 0 0 0 0 0 0 0 0 0 0 0 0 0 0 0 0 0 0 0 0 0 0 1 1 0 1 1
0 0 0 0 0 0 0 0 0 0 0 0 0 0 0 0 0 0 0 0 0 0 0 0 0 0 0 0 0 0 0 0 0 0 1 0 0 0 0 0 0 0 0
0 0 0 0 0 0 0 0 0 0 0 0 0 0 0 0 0 0 0 0 0 0 0 0 0 0 0 0 0 0 0 0 0 1 0 0 0 0 0 0 0 0 0
0 0 0 0 0 0 0 0 0 0 0 0 0 0 0 0 0 0 0 0 0 0 0 0 0 0 0 0 0 0 0 0 0 0 0 0 0 0 0 -0 0 0 0
0 0 0 0 0 0 0 -0 0 0 0 0 0 0 0 0 0 0 1 1 1 0 0 0 0 0 0 0 0 0 0 0 0 0 0 0 0 0 0 0 0 0 1
0 0 0 0 0 0 0 0 0 1 1 0 0 -0 -0 0 1 1 1 1 1 0 0 0 0 0 0 0 0 0 -0 0 0 0 0 0 0 0 0 0 0 0 0
0 0 0 0 0 0 0 0 0 0 0 0 0 1 0 1 1 1 1 1 0 0 0 0 0 0 0 0 0 0 0 0 0 0 0 0 0 0 0 0 0 0 0
0 0 0 0 0 0 0 0 0 0 0 0 1 1 1 1 1 0 0 0 0 0 0 0 0 0 0 0 0 0 0 0 0 0 0 0 0 0 0 0 0 0 0
-0 0 0 0 0 0 0 0 0 0 0 0 0 0 0 0 0 0 0 0 0 0 0 0 0 0 0 0 0 0 0 0 0 0 0 0 0 0 0 0 0 0 0
0 0 0 0 -0 0 0 0 0 0 0 0 0 0 0 0 0 0 0 0 0 0 0 0 0 0 0 0 0 0 0 0 0 0 0 0 0 0 0 0 0 0 0
0 0 0 0 0 0 0 0 0 0 0 0 0 0 0 0 0 0 0 0 0 0 0 0 0 0 0 0 0 0 0 0 0 0 0 0 0 0 0 0 0 0 0
Wind_Speed_500mb
68 66 59 53 45 39 40 44 44 42 41 40 39 36 33 31 28 26 27 30 31 31 29 27 25 24 24 24 24 22 25 26 25 25 26 25 26 25 22 22 21 18 17
76 71 63 56 49 41 39 42 45 45 45 45 43 41 38 35 32 29 28 29 30 31 30 28 25 24 23 22 21 23 24 23 20 20 20 22 24 25 24 25 24 21 17
77 72 65 58 51 44 39 41 46 49 48 47 45 43 40 36 33 32 32 32 30 29 29 28 25 24 22 21 21 20 20 16 11 10 12 15 17 20 22 25 24 22 19
74 72 66 60 53 45 41 41 47 48 46 47 46 44 40 37 34 33 32 32 31 29 27 25 23 22 21 21 20 17 13 10 6 6 8 10 12 13 16 25 26 25 21
75 70 66 61 55 47 43 43 47 47 45 45 44 44 41 37 34 32 31 30 28 27 24 21 19 18 18 17 14 11 9 3 4 6 10 11 12 13 15 23 26 29 26
78 70 66 63 58 51 46 44 45 47 45 44 43 40 38 35 32 30 28 26 24 22 20 17 15 15 14 12 11 9 6 2 8 12 15 17 15 14 15 18 24 29 31
79 72 66 64 61 55 48 44 43 45 45 42 40 37 34 32 30 27 26 23 21 18 16 13 11 11 10 10 9 9 9 9 11 11 17 20 19 20 21 23 25 28 34
77 72 67 65 61 56 50 44 41 41 42 40 37 35 32 28 27 25 22 20 17 16 14 11 10 10 10 10 10 11 13 18 18 21 23 27 26 27 28 27 28 29 33
74 72 69 66 62 56 51 46 41 39 39 39 36 34 31 27 23 20 18 15 14 11 10 10 11 11 12 13 14 16 18 20 23 28 31 29 28 30 33 34 32 31 32
73 70 69 70 68 61 55 48 43 39 36 36 37 34 30 26 22 18 14 10 8 8 8 8 9 10 12 13 14 16 17 14 18 23 24 23 25 31 36 39 37 37 34
74 73 73 73 69 62 56 51 45 40 37 36 37 34 31 25 20 16 12 10 9 8 9 9 10 11 13 14 15 18 19 17 19 18 18 21 26 31 37 43 41 35 34
79 76 75 74 71 65 59 55 50 45 39 34 34 33 30 25 19 15 14 11 8 7 9 12 13 15 17 18 21 23 22 24 27 28 26 29 32 35 38 39 32 33 38
74 72 74 73 70 66 63 58 53 45 39 34 31 32 29 27 22 17 16 11 6 7 10 11 16 18 20 21 22 22 25 29 33 36 36 37 40 42 42 43 41 38 42
68 63 64 65 64 62 59 55 49 43 38 34 31 30 28 25 23 20 14 11 7 7 10 14 18 15 16 17 22 27 29 31 34 37 31 33 39 42 39 38 41 46 48
64 58 57 57 56 54 50 47 44 40 35 31 29 27 25 25 23 22 19 17 13 11 14 18 22 21 22 25 28 32 34 37 39 39 44 50 52 49 49 49 50 52 53
66 61 53 48 46 44 41 38 36 34 29 26 23 19 17 16 18 21 17 15 15 16 16 23 28 30 35 35 36 34 39 44 45 49 54 57 60 57 54 49 53 56 51
60 57 53 44 39 35 31 30 30 25 23 23 19 16 11 5 4 6 12 16 21 23 23 29 31 35 39 35 37 39 44 48 52 59 63 60 56 56 60 66 56 81 37
59 60 51 46 41 33 31 26 23 26 26 22 19 14 7 3 7 10 12 14 21 25 29 33 38 39 40 41 41 42 48 53 58 62 67 70 70 70 48 53 71 44 51
55 56 57 52 47 43 36 30 23 28 27 26 21 20 19 17 14 18 21 21 25 30 36 40 39 42 46 46 47 49 51 56 56 65 74 75 76 74 65 61 37 45 51
62 53 52 50 47 46 44 42 36 32 27 21 17 10 12 13 16 23 28 27 32 38 36 33 38 39 45 52 55 57 56 59 62 56 69 67 71 52 46 54 54 57 54
63 62 59 56 53 53 38 26 42 40 38 22 10 11 14 17 18 19 23 27 34 34 32 30 33 37 44 46 52 57 57 64 58 54 41 35 42 51 51 53 45 52 61
50 50 56 50 54 47 28 42 46 51 43 32 25 19 19 14 13 12 16 22 27 31 30 30 40 44 42 41 44 53 52 67 54 56 53 55 55 54 48 52 61 60 60
38 54 47 63 52 38 42 51 60 61 43 34 27 24 23 20 21 23 25 32 35 37 37 39 38 35 33 32 27 17 19 19 54 67 62 62 50 51 48 53 58 59 59
30 40 44 51 44 49 49 61 67 32 21 8 15 12 22 21 23 26 25 23 27 29 29 27 27 25 25 31 31 29 27 35 32 42 46 64 59 54 61 64 66 59 51
48 35 8 41 20 30 38 41 33 15 3 16 8 11 25 21 18 19 14 14 17 19 20 22 28 31 26 28 33 38 40 38 32 49 49 67 74 73 73 67 66 66 62
49 24 24 42 30 23 16 18 9 6 3 4 9 10 7 4 7 9 11 15 18 22 25 27 30 30 28 28 28 31 36 40 47 49 65 77 75 76 73 56 45 58 62
Wind_Direction_500mb
175 170 167 165 161 158 157 160 163 163 159 160 159 157 152 146 139 135 135 135 135 134 132 129 125 119 114 110 109 109 100 93 92 92 82 72 64 57 45 40 34 34 37
172 169 168 166 163 161 158 160 161 157 156 154 154 153 150 148 146 140 136 134 133 132 131 128 126 124 120 119 122 114 110 109 100 93 75 63 54 49 40 37 24 12 14
173 168 169 167 166 163 159 158 158 155 155 154 154 153 152 153 150 145 140 134 131 130 127 126 126 122 123 131 129 122 122 124 116 97 73 58 45 42 36 34 17 4 0
174 171 170 168 169 165 161 159 158 156 155 157 155 155 155 154 152 149 145 141 138 134 129 128 131 134 137 138 134 133 133 124 90 61 52 24 18 21 22 18 8 355 353
178 174 171 170 171 169 164 161 160 158 157 158 158 157 157 156 154 152 152 152 150 144 142 144 146 148 149 154 156 151 146 112 41 6 357 351 353 8 8 4 2 348 340
179 175 173 173 174 174 169 164 163 163 161 160 160 161 160 157 156 158 159 161 162 160 156 159 161 162 161 167 174 182 188 226 319 316 324 327 321 329 343 343 344 339 337
179 175 176 176 178 177 174 169 165 167 167 165 163 164 163 162 163 162 163 167 170 175 179 181 185 187 189 194 199 216 233 253 287 288 300 311 314 312 317 316 317 320 330
181 176 177 178 180 180 178 175 170 170 172 171 168 167 165 166 165 167 171 174 179 189 196 205 217 225 230 237 245 254 254 261 273 271 287 295 302 312 309 307 304 306 321
180 180 179 180 181 184 184 181 177 175 176 178 175 174 172 170 168 170 175 178 189 203 218 231 244 254 261 266 271 272 267 267 274 276 280 284 286 294 304 303 293 296 313
182 183 183 182 183 185 186 187 185 182 181 183 185 185 181 177 176 176 176 187 193 217 233 248 261 268 274 276 278 277 277 275 279 272 271 278 278 291 300 304 292 286 305
184 185 185 185 185 186 188 189 192 191 190 191 194 192 191 189 185 184 187 197 215 235 257 271 284 297 299 296 291 282 276 279 280 283 275 268 288 300 308 300 293 283 298
186 186 187 186 186 187 190 194 196 198 200 200 200 201 200 201 203 201 207 216 244 276 306 313 315 307 304 301 294 287 286 284 289 292 285 286 294 298 305 315 300 292 296
190 190 189 188 189 190 194 197 201 204 206 207 207 209 210 212 218 224 232 232 243 307 341 342 331 311 314 303 307 299 292 296 307 302 292 295 296 302 304 307 305 300 296
193 193 192 192 192 194 198 202 206 207 210 212 212 212 217 224 233 243 254 256 261 294 310 322 322 326 332 327 317 303 300 301 312 306 307 305 303 301 304 306 299 302 300
193 195 194 192 194 198 202 206 208 209 210 211 215 217 221 230 236 245 249 263 269 298 314 317 316 310 302 304 303 300 310 307 308 309 310 305 296 291 297 298 299 292 296
193 191 194 193 196 200 203 208 211 210 206 207 210 216 227 236 245 254 260 286 287 289 312 306 299 297 296 296 300 303 307 308 305 304 298 293 283 284 286 290 294 295 289
194 192 191 193 197 202 205 210 212 207 205 192 172 170 173 165 92 223 258 298 309 306 299 299 305 300 298 296 294 296 301 301 299 290 288 286 288 284 291 281 290 304 327
189 189 191 191 196 202 207 195 200 199 197 198 191 189 178 201 257 269 281 302 303 303 299 293 294 287 287 287 291 295 298 300 293 295 294 292 289 291 329 338 276 317 303
187 186 189 195 196 201 208 214 218 216 229 229 226 226 240 251 261 264 274 286 293 294 299 293 287 286 287 289 292 293 297 295 295 301 304 299 294 306 295 316 297 289 301
192 191 193 190 195 201 211 237 235 232 241 236 230 222 245 265 255 270 278 283 288 290 290 291 291 288 289 292 294 296 296 296 291 309 316 294 288 296 300 298 302 295 303
198 198 197 198 198 199 215 265 241 227 225 227 226 265 298 299 300 297 275 276 284 285 290 292 298 298 302 298 299 296 292 296 299 307 316 327 316 313 304 309 306 305 306
212 206 211 219 215 211 227 298 237 231 234 241 255 258 268 290 304 296 274 273 278 290 290 298 304 299 302 306 304 302 306 310 311 304 304 307 310 310 307 302 302 298 298
199 208 218 237 226 198 175 212 231 236 235 231 232 233 244 259 278 280 279 283 299 299 298 290 306 313 315 317 328 314 318 308 315 306 312 320 318 309 303 302 307 312 308
188 203 223 243 226 204 247 215 250 230 238 205 198 230 256 282 297 294 291 284 286 291 303 311 323 327 329 321 326 316 312 312 309 309 302 307 310 307 308 309 310 308 305
178 187 162 180 202 180 218 259 232 218 214 245 271 292 300 289 282 298 298 305 310 309 320 323 321 318 321 323 322 319 313 313 305 316 316 311 308 311 312 315 310 302 303
174 164 147 177 195 221 251 249 254 67 88 345 306 292 270 273 313 345 3 8 359 349 343 343 341 335 330 320 314 313 319 324 319 320 314 314 316 316 321 324 306 301 303
Wind_Speed_850mb
68 66 59 53 45 39 40 44 44 42 41 40 39 36 33 31 28 26 27 30 31 31 29 27 25 24 24 24 24 22 25 26 25 25 26 25 26 25 22 22 21 18 17
76 71 63 56 49 41 39 42 45 45 45 45 43 41 38 35 32 29 28 29 30 31 30 28 25 24 23 22 21 23 24 23 20 20 20 22 24 25 24 25 24 21 17
77 72 65 58 51 44 39 41 46 49 48 47 45 43 40 36 33 32 32 32 30 29 29 28 25 24 22 21 21 20 20 16 11 10 12 15 17 20 22 25 24 22 19
74 72 66 60 53 45 41 41 47 48 46 47 46 44 40 37 34 33 32 32 31 29 27 25 23 22 21 21 20 17 13 10 6 6 8 10 12 13 16 25 26 25 21
75 70 66 61 55 47 43 43 47 47 45 45 44 44 41 37 34 32 31 30 28 27 24 21 19 18 18 17 14 11 9 3 4 6 10 11 12 13 15 23 26 29 26
78 70 66 63 58 51 46 44 45 47 45 44 43 40 38 35 32 30 28 26 24 22 20 17 15 15 14 12 11 9 6 2 8 12 15 17 15 14 15 18 24 29 31
79 72 66 64 61 55 48 44 43 45 45 42 40 37 34 32 30 27 26 23 21 18 16 13 11 11 10 10 9 9 9 9 11 11 17 20 19 20 21 23 25 28 34
77 72 67 65 61 56 50 44 41 41 42 40 37 35 32 28 27 25 22 20 17 16 14 11 10 10 10 10 10 11 13 18 18 21 23 27 26 27 28 27 28 29 33
74 72 69 66 62 56 51 46 41 39 39 39 36 34 31 27 23 20 18 15 14 11 10 10 11 11 12 13 14 16 18 20 23 28 31 29 28 30 33 34 32 31 32
73 70 69 70 68 61 55 48 43 39 36 36 37 34 30 26 22 18 14 10 8 8 8 8 9 10 12 13 14 16 17 14 18 23 24 23 25 31 36 39 37 37 34
74 73 73 73 69 62 56 51 45 40 37 36 37 34 31 25 20 16 12 10 9 8 9 9 10 11 13 14 15 18 19 17 19 18 18 21 26 31 37 43 41 35 34
79 76 75 74 71 65 59 55 50 45 39 34 34 33 30 25 19 15 14 11 8 7 9 12 13 15 17 18 21 23 22 24 27 28 26 29 32 35 38 39 32 33 38
74 72 74 73 70 66 63 58 53 45 39 34 31 32 29 27 22 17 16 11 6 7 10 11 16 18 20 21 22 22 25 29 33 36 36 37 40 42 42 43 41 38 42
68 63 64 65 64 62 59 55 49 43 38 34 31 30 28 25 23 20 14 11 7 7 10 14 18 15 16 17 22 27 29 31 34 37 31 33 39 42 39 38 41 46 48
64 58 57 57 56 54 50 47 44 40 35 31 29 27 25 25 23 22 19 17 13 11 14 18 22 21 22 25 28 32 34 37 39 39 44 50 52 49 49 49 50 52 53
66 61 53 48 46 44 41 38 36 34 29 26 23 19 17 16 18 21 17 15 15 16 16 23 28 30 35 35 36 34 39 44 45 49 54 57 60 57 54 49 53 56 51
60 57 53 44 39 35 31 30 30 25 23 23 19 16 11 5 4 6 12 16 21 23 23 29 31 35 39 35 37 39 44 48 52 59 63 60 56 56 60 66 56 81 37
59 60 51 46 41 33 31 26 23 26 26 22 19 14 7 3 7 10 12 14 21 25 29 33 38 39 40 41 41 42 48 53 58 62 67 70 70 70 48 53 71 44 51
55 56 57 52 47 43 36 30 23 28 27 26 21 20 19 17 14 18 21 21 25 30 36 40 39 42 46 46 47 49 51 56 56 65 74 75 76 74 65 61 37 45 51
62 53 52 50 47 46 44 42 36 32 27 21 17 10 12 13 16 23 28 27 32 38 36 33 38 39 45 52 55 57 56 59 62 56 69 67 71 52 46 54 54 57 54
63 62 59 56 53 53 38 26 42 40 38 22 10 11 14 17 18 19 23 27 34 34 32 30 33 37 44 46 52 57 57 64 58 54 41 35 42 51 51 53 45 52 61
50 50 56 50 54 47 28 42 46 51 43 32 25 19 19 14 13 12 16 22 27 31 30 30 40 44 42 41 44 53 52 67 54 56 53 55 55 54 48 52 61 60 60
38 54 47 63 52 38 42 51 60 61 43 34 27 24 23 20 21 23 25 32 35 37 37 39 38 35 33 32 27 17 19 19 54 67 62 62 50 51 48 53 58 59 59
30 40 44 51 44 49 49 61 67 32 21 8 15 12 22 21 23 26 25 23 27 29 29 27 27 25 25 31 31 29 27 35 32 42 46 64 59 54 61 64 66 59 51
48 35 8 41 20 30 38 41 33 15 3 16 8 11 25 21 18 19 14 14 17 19 20 22 28 31 26 28 33 38 40 38 32 49 49 67 74 73 73 67 66 66 62
49 24 24 42 30 23 16 18 9 6 3 4 9 10 7 4 7 9 11 15 18 22 25 27 30 30 28 28 28 31 36 40 47 49 65 77 75 76 73 56 45 58 62
Wind_Direction_850mb
175 170 167 165 161 158 157 160 163 163 159 160 159 157 152 146 139 135 135 135 135 134 132 129 125 119 114 110 109 109 100 93 92 92 82 72 64 57 45 40 34 34 37
172 169 168 166 163 161 158 160 161 157 156 154 154 153 150 148 146 140 136 134 133 132 131 128 126 124 120 119 122 114 110 109 100 93 75 63 54 49 40 37 24 12 14
173 168 169 167 166 163 159 158 158 155 155 154 154 153 152 153 150 145 140 134 131 130 127 126 126 122 123 131 129 122 122 124 116 97 73 58 45 42 36 34 17 4 0
174 171 170 168 169 165 161 159 158 156 155 157 155 155 155 154 152 149 145 141 138 134 129 128 131 134 137 138 134 133 133 124 90 61 52 24 18 21 22 18 8 355 353
178 174 171 170 171 169 164 161 160 158 157 158 158 157 157 156 154 152 152 152 150 144 142 144 146 148 149 154 156 151 146 112 41 6 357 351 353 8 8 4 2 348 340
179 175 173 173 174 174 169 164 163 163 161 160 160 161 160 157 156 158 159 161 162 160 156 159 161 162 161 167 174 182 188 226 319 316 324 327 321 329 343 343 344 339 337
179 175 176 176 178 177 174 169 165 167 167 165 163 164 163 162 163 162 163 167 170 175 179 181 185 187 189 194 199 216 233 253 287 288 300 311 314 312 317 316 317 320 330
181 176 177 178 180 180 178 175 170 170 172 171 168 167 165 166 165 167 171 174 179 189 196 205 217 225 230 237 245 254 254 261 273 271 287 295 302 312 309 307 304 306 321
180 180 179 180 181 184 184 181 177 175 176 178 175 174 172 170 168 170 175 178 189 203 218 231 244 254 261 266 271 272 267 267 274 276 280 284 286 294 304 303 293 296 313
182 183 183 182 183 185 186 187 185 182 181 183 185 185 181 177 176 176 176 187 193 217 233 248 261 268 274 276 278 277 277 275 279 272 271 278 278 291 300 304 292 286 305
184 185 185 185 185 186 188 189 192 191 190 191 194 192 191 189 185 184 187 197 215 235 257 271 284 297 299 296 291 282 276 279 280 283 275 268 288 300 308 300 293 283 298
186 186 187 186 186 187 190 194 196 198 200 200 200 201 200 201 203 201 207 216 244 276 306 313 315 307 304 301 294 287 286 284 289 292 285 286 294 298 305 315 300 292 296
190 190 189 188 189 190 194 197 201 204 206 207 207 209 210 212 218 224 232 232 243 307 341 342 331 311 314 303 307 299 292 296 307 302 292 295 296 302 304 307 305 300 296
193 193 192 192 192 194 198 202 206 207 210 212 212 212 217 224 233 243 254 256 261 294 310 322 322 326 332 327 317 303 300 301 312 306 307 305 303 301 304 306 299 302 300
193 195 194 192 194 198 202 206 208 209 210 211 215 217 221 230 236 245 249 263 269 298 314 317 316 310 302 304 303 300 310 307 308 309 310 305 296 291 297 298 299 292 296
193 191 194 193 196 200 203 208 211 210 206 207 210 216 227 236 245 254 260 286 287 289 312 306 299 297 296 296 300 303 307 308 305 304 298 293 283 284 286 290 294 295 289
194 192 191 193 197 202 205 210 212 207 205 192 172 170 173 165 92 223 258 298 309 306 299 299 305 300 298 296 294 296 301 301 299 290 288 286 288 284 291 281 290 304 327
189 189 191 191 196 202 207 195 200 199 197 198 191 189 178 201 257 269 281 302 303 303 299 293 294 287 287 287 291 295 298 300 293 295 294 292 289 291 329 338 276 317 303
187 186 189 195 196 201 208 214 218 216 229 229 226 226 240 251 261 264 274 286 293 294 299 293 287 286 287 289 292 293 297 295 295 301 304 299 294 306 295 316 297 289 301
192 191 193 190 195 201 211 237 235 232 241 236 230 222 245 265 255 270 278 283 288 290 290 291 291 288 289 292 294 296 296 296 291 309 316 294 288 296 300 298 302 295 303
198 198 197 198 198 199 215 265 241 227 225 227 226 265 298 299 300 297 275 276 284 285 290 292 298 298 302 298 299 296 292 296 299 307 316 327 316 313 304 309 306 305 306
212 206 211 219 215 211 227 298 237 231 234 241 255 258 268 290 304 296 274 273 278 290 290 298 304 299 302 306 304 302 306 310 311 304 304 307 310 310 307 302 302 298 298
199 208 218 237 226 198 175 212 231 236 235 231 232 233 244 259 278 280 279 283 299 299 298 290 306 313 315 317 328 314 318 308 315 306 312 320 318 309 303 302 307 312 308
188 203 223 243 226 204 247 215 250 230 238 205 198 230 256 282 297 294 291 284 286 291 303 311 323 327 329 321 326 316 312 312 309 309 302 307 310 307 308 309 310 308 305
178 187 162 180 202 180 218 259 232 218 214 245 271 292 300 289 282 298 298 305 310 309 320 323 321 318 321 323 322 319 313 313 305 316 316 311 308 311 312 315 310 302 303
174 164 147 177 195 221 251 249 254 67 88 345 306 292 270 273 313 345 3 8 359 349 343 343 341 335 330 320 314 313 319 324 319 320 314 314 316 316 321 324 306 301 303